,,Stat1,,Stat2,,Stat3,,Stat4,,Wind1,,Wind1,
time,status,PR1M_SUM,status,RH1M_AVG,status,SR1M_AVG,status,TA1M_AVG,status,W1dAve1m,status,W1sAve1m,
1999-09-17, 00:01:00,VALID,0,VALID,96.8594,VALID,0.0339617,VALID,20.2299,VALID,211,VALID,0.462838,
1999-09-17, 00:02:00,VALID,0,VALID,96.8505,VALID,0.0169808,VALID,20.2307,VALID,227,VALID,0.241132,
1999-09-17, 00:03:00,VALID,0,VALID,96.9026,VALID,0,VALID,20.2339,VALID,232,VALID,0.0757812,
1999-09-17, 00:04:00,VALID,0,VALID,97.0819,VALID,-0.0169808,VALID,20.2307,VALID,233,VALID,0.00919118,
1999-09-17, 00:05:00,VALID,0,VALID,97.4087,VALID,-0.0679233,VALID,20.235,VALID,288,VALID,0.321135,
1999-09-17, 00:06:00,VALID,0,VALID,97.6414,VALID,-0.0509425,VALID,20.226,VALID,317,VALID,0.230369,
1999-09-17, 00:07:00,VALID,0,VALID,97.8118,VALID,-0.0849042,VALID,20.2001,VALID,317,VALID,0.0429688,
1999-09-17, 00:08:00,VALID,0,VALID,97.9606,VALID,-0.101885,VALID,20.1733,VALID,312,VALID,0,
1999-09-17, 00:09:00,VALID,0,VALID,98.1437,VALID,-0.0679233,VALID,20.1902,VALID,41,VALID,0.103002,
1999-09-17, 00:10:00,VALID,0,VALID,98.281,VALID,-0.0849042,VALID,20.18,VALID,109,VALID,0.725643,
1999-09-17, 00:11:00,VALID,0,VALID,98.2785,VALID,-0.0849042,VALID,20.1581,VALID,116,VALID,1.10178,
1999-09-17, 00:12:00,VALID,0,VALID,98.2124,VALID,-0.0509425,VALID,20.122,VALID,109,VALID,1.29666,
1999-09-17, 00:13:00,VALID,0,VALID,98.1844,VALID,-0.0679233,VALID,20.0929,VALID,131,VALID,1.23938,
1999-09-17, 00:14:00,VALID,0,VALID,98.0763,VALID,-0.0679233,VALID,20.0576,VALID,119,VALID,1.40487,
1999-09-17, 00:15:00,VALID,0,VALID,98.0687,VALID,-0.0679233,VALID,20.038,VALID,114,VALID,1.36595,
1999-09-17, 00:16:00,VALID,0,VALID,98.0598,VALID,-0.0849042,VALID,20.0089,VALID,102,VALID,1.25761,
1999-09-17, 00:17:00,VALID,0,VALID,98.0471,VALID,-0.0509425,VALID,19.9999,VALID,92,VALID,1.19258,
1999-09-17, 00:18:00,VALID,0,VALID,98.1259,VALID,-0.0679233,VALID,19.9927,VALID,106,VALID,0.98763,
1999-09-17, 00:19:00,VALID,0,VALID,98.1628,VALID,-0.0169808,VALID,19.9962,VALID,105,VALID,1.03454,
1999-09-17, 00:20:00,VALID,0,VALID,98.1857,VALID,0,VALID,19.976,VALID,100,VALID,1.11098,
1999-09-17, 00:21:00,VALID,0,VALID,98.206,VALID,-0.0509425,VALID,19.973,VALID,94,VALID,1.39909,
1999-09-17, 00:22:00,VALID,0,VALID,98.3383,VALID,0,VALID,19.9758,VALID,83,VALID,1.58678,
1999-09-17, 00:23:00,VALID,0,VALID,98.5964,VALID,-0.0169808,VALID,20.0021,VALID,74,VALID,1.19609,
1999-09-17, 00:24:00,VALID,0,VALID,98.7325,VALID,-0.0509425,VALID,20.0253,VALID,79,VALID,1.50643,
1999-09-17, 00:25:00,VALID,0,VALID,98.763,VALID,-0.0169808,VALID,20.0086,VALID,74,VALID,1.25946,
1999-09-17, 00:26:00,VALID,0,VALID,98.7757,VALID,0,VALID,19.9992,VALID,64,VALID,1.1893,
1999-09-17, 00:27:00,VALID,0,VALID,98.8622,VALID,-0.0509425,VALID,19.9892,VALID,58,VALID,1.09043,
1999-09-17, 00:28:01,VALID,0,VALID,99.0186,VALID,-0.0339617,VALID,20.0118,VALID,72,VALID,1.48264,
1999-09-17, 00:29:00,VALID,0,VALID,99.1343,VALID,-0.0169808,VALID,20.0151,VALID,79,VALID,1.26007,
1999-09-17, 00:30:00,VALID,0,VALID,99.2208,VALID,-0.0169808,VALID,20.0377,VALID,79,VALID,1.3835,
1999-09-17, 00:31:00,VALID,0,VALID,99.2894,VALID,0,VALID,20.0442,VALID,89,VALID,1.39258,
1999-09-17, 00:32:00,VALID,0,VALID,99.3594,VALID,-0.0339617,VALID,20.0571,VALID,94,VALID,1.45967,
1999-09-17, 00:33:00,VALID,0,VALID,99.4166,VALID,-0.0679233,VALID,20.0802,VALID,97,VALID,1.52023,
1999-09-17, 00:34:00,VALID,0,VALID,99.4331,VALID,-0.0339617,VALID,20.087,VALID,94,VALID,1.80147,
1999-09-17, 00:35:00,VALID,0,VALID,99.4547,VALID,-0.0339617,VALID,20.0733,VALID,93,VALID,1.86431,
1999-09-17, 00:36:00,VALID,0,VALID,99.4853,VALID,-0.0169808,VALID,20.0894,VALID,107,VALID,1.90234,
1999-09-17, 00:37:00,VALID,0,VALID,99.5272,VALID,-0.0339617,VALID,20.1091,VALID,86,VALID,1.21602,
1999-09-17, 00:38:00,VALID,0,VALID,99.5285,VALID,0,VALID,20.1191,VALID,86,VALID,1.57899,
1999-09-17, 00:39:01,VALID,0,VALID,99.5323,VALID,-0.0169808,VALID,20.1118,VALID,74,VALID,1.04708,
1999-09-17, 00:40:00,VALID,0,VALID,99.5158,VALID,-0.0169808,VALID,20.1355,VALID,20,VALID,0.663143,
1999-09-17, 00:41:00,VALID,0,VALID,99.5196,VALID,-0.0339617,VALID,20.1153,VALID,326,VALID,0.41428,
1999-09-17, 00:42:00,VALID,0,VALID,99.4751,VALID,-0.0339617,VALID,20.0991,VALID,317,VALID,0.288851,
1999-09-17, 00:43:00,VALID,0,VALID,99.4967,VALID,0,VALID,20.0986,VALID,313,VALID,0.0189453,
1999-09-17, 00:44:00,VALID,0,VALID,99.5107,VALID,-0.0339617,VALID,20.1091,VALID,308,VALID,0,
1999-09-17, 00:45:00,VALID,0,VALID,99.559,VALID,-0.0169808,VALID,20.1151,VALID,308,VALID,0,
1999-09-17, 00:46:00,VALID,0,VALID,99.573,VALID,-0.0169808,VALID,20.1312,VALID,307,VALID,0.0779247,
1999-09-17, 00:47:00,VALID,0,VALID,99.587,VALID,0,VALID,20.1447,VALID,306,VALID,0.159375,
1999-09-17, 00:48:00,VALID,0,VALID,99.6302,VALID,-0.0509425,VALID,20.1576,VALID,306,VALID,0.0603299,
1999-09-17, 00:49:01,VALID,0,VALID,99.6099,VALID,0.0169808,VALID,20.1606,VALID,306,VALID,0,
1999-09-17, 00:50:01,VALID,0,VALID,99.6302,VALID,0.0849042,VALID,20.1588,VALID,306,VALID,0,
1999-09-17, 00:51:00,VALID,0,VALID,99.6569,VALID,0.101885,VALID,20.1782,VALID,105,VALID,0.326606,
1999-09-17, 00:52:00,VALID,0,VALID,99.7091,VALID,0.101885,VALID,20.2168,VALID,112,VALID,0.41174,
1999-09-17, 00:53:00,VALID,0,VALID,99.7675,VALID,0.118866,VALID,20.2784,VALID,107,VALID,0.631811,
1999-09-17, 00:54:00,VALID,0,VALID,99.7612,VALID,0.0849042,VALID,20.2978,VALID,98,VALID,0.851333,
1999-09-17, 00:55:00,VALID,0,VALID,99.7421,VALID,0.0849042,VALID,20.2976,VALID,105,VALID,0.709087,
1999-09-17, 00:56:00,VALID,0,VALID,99.7561,VALID,0.101885,VALID,20.3073,VALID,107,VALID,0.739515,
1999-09-17, 00:57:00,VALID,0,VALID,99.751,VALID,0.101885,VALID,20.3232,VALID,96,VALID,0.793164,
1999-09-17, 00:58:00,VALID,0,VALID,99.7396,VALID,0.0849042,VALID,20.32,VALID,89,VALID,0.700955,
1999-09-17, 00:59:00,VALID,0,VALID,99.7332,VALID,0.101885,VALID,20.3267,VALID,100,VALID,0.486637,
1999-09-17, 01:00:00,VALID,0,VALID,99.7269,VALID,0.101885,VALID,20.3361,VALID,98,VALID,0.222197,
1999-09-17, 01:01:01,VALID,0,VALID,99.6658,VALID,0.0849042,VALID,20.2847,VALID,7,VALID,0.26237,
1999-09-17, 01:02:00,VALID,0,VALID,99.6798,VALID,0.0849042,VALID,20.2919,VALID,3,VALID,0,
1999-09-17, 01:03:00,VALID,0,VALID,99.6696,VALID,0.101885,VALID,20.2817,VALID,2,VALID,0,
1999-09-17, 01:04:00,VALID,0,VALID,99.6862,VALID,0.0849042,VALID,20.2819,VALID,32,VALID,0,
1999-09-17, 01:05:00,VALID,0,VALID,99.7192,VALID,0.0169808,VALID,20.3029,VALID,90,VALID,0.565378,
1999-09-17, 01:06:00,VALID,0,VALID,99.7434,VALID,0,VALID,20.319,VALID,100,VALID,0.686098,
1999-09-17, 01:07:00,VALID,0,VALID,99.7485,VALID,0,VALID,20.3355,VALID,110,VALID,0.421875,
1999-09-17, 01:08:00,VALID,0,VALID,99.7116,VALID,-0.0169808,VALID,20.3123,VALID,114,VALID,0.223307,
1999-09-17, 01:09:00,VALID,0,VALID,99.7065,VALID,0,VALID,20.2991,VALID,96,VALID,0.532895,
1999-09-17, 01:10:00,VALID,0,VALID,99.6684,VALID,0.0169808,VALID,20.2961,VALID,66,VALID,0.684053,
1999-09-17, 01:11:00,VALID,0,VALID,99.6251,VALID,0,VALID,20.2636,VALID,84,VALID,0.410807,
1999-09-17, 01:12:01,VALID,0,VALID,99.6251,VALID,0,VALID,20.2673,VALID,89,VALID,0.329392,
1999-09-17, 01:13:00,VALID,0,VALID,99.5908,VALID,0,VALID,20.2344,VALID,68,VALID,0.561899,
1999-09-17, 01:14:00,VALID,0,VALID,99.601,VALID,0,VALID,20.2275,VALID,79,VALID,0.579733,
1999-09-17, 01:15:00,VALID,0,VALID,99.5997,VALID,0,VALID,20.2245,VALID,87,VALID,0.829359,
1999-09-17, 01:16:00,VALID,0,VALID,99.6277,VALID,-0.0169808,VALID,20.2538,VALID,91,VALID,1.03516,
1999-09-17, 01:17:00,VALID,0,VALID,99.6048,VALID,-0.0169808,VALID,20.2409,VALID,87,VALID,1.14844,
1999-09-17, 01:18:00,VALID,0,VALID,99.5832,VALID,0,VALID,20.2444,VALID,96,VALID,1.15365,
1999-09-17, 01:19:00,VALID,0,VALID,99.5679,VALID,0,VALID,20.2439,VALID,90,VALID,1.32771,
1999-09-17, 01:20:00,VALID,0,VALID,99.5488,VALID,0.0339617,VALID,20.2633,VALID,90,VALID,0.997472,
1999-09-17, 01:21:00,VALID,0,VALID,99.5412,VALID,0,VALID,20.2593,VALID,94,VALID,1.02127,
1999-09-17, 01:22:00,VALID,0,VALID,99.5056,VALID,0,VALID,20.2693,VALID,94,VALID,1.03632,
1999-09-17, 01:23:01,VALID,0,VALID,99.4725,VALID,0.0509425,VALID,20.2827,VALID,102,VALID,0.986523,
1999-09-17, 01:24:00,VALID,0,VALID,99.4306,VALID,0,VALID,20.2698,VALID,97,VALID,0.75046,
1999-09-17, 01:25:00,VALID,0,VALID,99.3899,VALID,0.0169808,VALID,20.2628,VALID,98,VALID,0.596217,
1999-09-17, 01:26:00,VALID,0,VALID,99.395,VALID,0.0339617,VALID,20.2725,VALID,96,VALID,0.442107,
1999-09-17, 01:27:00,VALID,0,VALID,99.4242,VALID,0.0169808,VALID,20.2884,VALID,105,VALID,0.649609,
1999-09-17, 01:28:00,VALID,0,VALID,99.3886,VALID,0.0169808,VALID,20.2857,VALID,103,VALID,0.756944,
1999-09-17, 01:29:00,VALID,0,VALID,99.3365,VALID,0.0169808,VALID,20.2792,VALID,99,VALID,0.770559,
1999-09-17, 01:30:00,VALID,0,VALID,99.2805,VALID,0.0339617,VALID,20.2531,VALID,93,VALID,0.948529,
1999-09-17, 01:31:00,VALID,0,VALID,99.2869,VALID,0.0509425,VALID,20.2693,VALID,100,VALID,0.817491,
1999-09-17, 01:32:00,VALID,0,VALID,99.2564,VALID,0.0169808,VALID,20.2665,VALID,90,VALID,0.847973,
1999-09-17, 01:33:01,VALID,0,VALID,99.2729,VALID,0,VALID,20.2792,VALID,95,VALID,0.565104,
1999-09-17, 01:34:01,VALID,0,VALID,99.2169,VALID,0.0169808,VALID,20.2859,VALID,101,VALID,0.478401,
1999-09-17, 01:35:00,VALID,0,VALID,99.2449,VALID,-0.0169808,VALID,20.3086,VALID,108,VALID,0.186061,
1999-09-17, 01:36:00,VALID,0,VALID,99.1877,VALID,0,VALID,20.3153,VALID,141,VALID,0.294613,
1999-09-17, 01:37:00,VALID,0,VALID,99.161,VALID,0,VALID,20.3115,VALID,139,VALID,0,
1999-09-17, 01:38:00,VALID,0,VALID,99.1674,VALID,0,VALID,20.3307,VALID,129,VALID,0,
1999-09-17, 01:39:00,VALID,0,VALID,99.1635,VALID,0,VALID,20.3404,VALID,105,VALID,0,
1999-09-17, 01:40:00,VALID,0,VALID,99.1826,VALID,-0.0169808,VALID,20.377,VALID,109,VALID,0,
1999-09-17, 01:41:00,VALID,0,VALID,99.2169,VALID,0.0169808,VALID,20.3924,VALID,92,VALID,0,
1999-09-17, 01:42:00,VALID,0,VALID,99.1623,VALID,0.0169808,VALID,20.3924,VALID,95,VALID,0,
1999-09-17, 01:43:01,VALID,0,VALID,98.9079,VALID,0.0339617,VALID,20.3342,VALID,99,VALID,0,
1999-09-17, 01:44:00,VALID,0,VALID,98.749,VALID,0,VALID,20.318,VALID,91,VALID,0,
1999-09-17, 01:45:00,VALID,0,VALID,98.7325,VALID,0,VALID,20.3406,VALID,121,VALID,0,
1999-09-17, 01:46:00,VALID,0,VALID,98.7274,VALID,0.0169808,VALID,20.3406,VALID,113,VALID,0,
1999-09-17, 01:47:00,VALID,0,VALID,98.7121,VALID,0,VALID,20.3334,VALID,112,VALID,0,
1999-09-17, 01:48:00,VALID,0,VALID,98.777,VALID,0,VALID,20.3501,VALID,119,VALID,0,
1999-09-17, 01:49:00,VALID,0,VALID,98.6803,VALID,0.0339617,VALID,20.3339,VALID,120,VALID,0,
1999-09-17, 01:50:00,VALID,0,VALID,98.5926,VALID,-0.101885,VALID,20.3133,VALID,120,VALID,0,
1999-09-17, 01:51:00,VALID,0,VALID,98.5888,VALID,-0.0849042,VALID,20.3036,VALID,120,VALID,0,
1999-09-17, 01:52:00,VALID,0,VALID,98.5862,VALID,-0.101885,VALID,20.2996,VALID,127,VALID,0.308488,
1999-09-17, 01:53:00,VALID,0,VALID,98.5239,VALID,-0.0849042,VALID,20.2902,VALID,139,VALID,0.717949,
1999-09-17, 01:54:00,VALID,0,VALID,98.3713,VALID,-0.101885,VALID,20.2837,VALID,125,VALID,0.74954,
1999-09-17, 01:55:00,VALID,0,VALID,98.206,VALID,-0.0849042,VALID,20.3001,VALID,125,VALID,0.537623,
1999-09-17, 01:56:00,VALID,0,VALID,98.014,VALID,-0.101885,VALID,20.3004,VALID,148,VALID,0.706003,
1999-09-17, 01:57:00,VALID,0,VALID,97.8169,VALID,-0.101885,VALID,20.271,VALID,154,VALID,0.651758,
1999-09-17, 01:58:00,VALID,0,VALID,97.7838,VALID,-0.101885,VALID,20.2255,VALID,174,VALID,0.742188,
1999-09-17, 01:59:00,VALID,0,VALID,97.8614,VALID,-0.0849042,VALID,20.1964,VALID,193,VALID,0.804071,
1999-09-17, 02:00:00,VALID,0,VALID,98.0623,VALID,-0.0679233,VALID,20.1611,VALID,209,VALID,0.818704,
1999-09-17, 02:01:00,VALID,0,VALID,98.1984,VALID,-0.101885,VALID,20.1223,VALID,223,VALID,0.852648,
1999-09-17, 02:02:00,VALID,0,VALID,98.3561,VALID,-0.101885,VALID,20.1031,VALID,223,VALID,0.88788,
1999-09-17, 02:03:00,VALID,0,VALID,98.5137,VALID,-0.101885,VALID,20.0964,VALID,207,VALID,0.680859,
1999-09-17, 02:04:00,VALID,0,VALID,98.5748,VALID,-0.0849042,VALID,20.0641,VALID,183,VALID,0.736903,
1999-09-17, 02:05:00,VALID,0,VALID,98.6638,VALID,0,VALID,20.0302,VALID,175,VALID,0.821957,
1999-09-17, 02:06:00,VALID,0,VALID,98.7833,VALID,0.0339617,VALID,20.0076,VALID,162,VALID,0.448718,
1999-09-17, 02:07:00,VALID,0,VALID,98.88,VALID,0.0169808,VALID,19.9914,VALID,176,VALID,0.644141,
1999-09-17, 02:08:00,VALID,0,VALID,98.9385,VALID,0.0169808,VALID,19.9817,VALID,175,VALID,0.572483,
1999-09-17, 02:09:00,VALID,0,VALID,98.9893,VALID,0.0339617,VALID,19.9524,VALID,174,VALID,0.571135,
1999-09-17, 02:10:00,VALID,0,VALID,99.0427,VALID,0.0169808,VALID,19.9494,VALID,190,VALID,0.507813,
1999-09-17, 02:11:00,VALID,0,VALID,99.1279,VALID,0,VALID,19.9464,VALID,208,VALID,0.610026,
1999-09-17, 02:12:00,VALID,0,VALID,99.1699,VALID,0.0169808,VALID,19.9397,VALID,211,VALID,0.644215,
1999-09-17, 02:13:00,VALID,0,VALID,99.1902,VALID,0,VALID,19.9268,VALID,206,VALID,0.420673,
1999-09-17, 02:14:00,VALID,0,VALID,99.2042,VALID,0,VALID,19.9044,VALID,205,VALID,0.0799632,
1999-09-17, 02:15:00,VALID,0,VALID,99.236,VALID,0.0169808,VALID,19.8909,VALID,201,VALID,0.196546,
1999-09-17, 02:16:00,VALID,0,VALID,99.2462,VALID,0,VALID,19.8812,VALID,201,VALID,0.81764,
1999-09-17, 02:17:00,VALID,0,VALID,99.2856,VALID,0,VALID,19.872,VALID,197,VALID,1.18223,
1999-09-17, 02:18:00,VALID,0,VALID,99.3009,VALID,0.0169808,VALID,19.8623,VALID,206,VALID,1.17622,
1999-09-17, 02:19:00,VALID,0,VALID,99.3899,VALID,0.0339617,VALID,19.8521,VALID,215,VALID,1.39556,
1999-09-17, 02:20:00,VALID,0,VALID,99.4204,VALID,0.0679233,VALID,19.8589,VALID,215,VALID,1.47679,
1999-09-17, 02:21:00,VALID,0,VALID,99.4471,VALID,0.0679233,VALID,19.8718,VALID,216,VALID,1.49566,
1999-09-17, 02:22:00,VALID,0,VALID,99.4776,VALID,0.0339617,VALID,19.8783,VALID,214,VALID,1.61529,
1999-09-17, 02:23:00,VALID,0,VALID,99.4547,VALID,0.0339617,VALID,19.8686,VALID,230,VALID,1.08438,
1999-09-17, 02:24:00,VALID,0,VALID,99.4496,VALID,0.0509425,VALID,19.8658,VALID,227,VALID,0.942555,
1999-09-17, 02:25:00,VALID,0,VALID,99.4535,VALID,0,VALID,19.8521,VALID,225,VALID,1.26049,
1999-09-17, 02:26:00,VALID,0,VALID,99.4814,VALID,0.0169808,VALID,19.8497,VALID,222,VALID,1.2508,
1999-09-17, 02:27:00,VALID,0,VALID,99.5514,VALID,0.0679233,VALID,19.8454,VALID,225,VALID,1.26816,
1999-09-17, 02:28:01,VALID,0,VALID,99.5832,VALID,0.0679233,VALID,19.8623,VALID,220,VALID,1.20204,
1999-09-17, 02:29:00,VALID,0,VALID,99.6188,VALID,0.0169808,VALID,19.8688,VALID,230,VALID,0.582442,
1999-09-17, 02:30:00,VALID,0,VALID,99.6391,VALID,0,VALID,19.8623,VALID,226,VALID,0.570772,
1999-09-17, 02:31:00,VALID,0,VALID,99.6162,VALID,0,VALID,19.8524,VALID,211,VALID,0.949219,
1999-09-17, 02:32:00,VALID,0,VALID,99.6455,VALID,0,VALID,19.8526,VALID,231,VALID,0.672931,
1999-09-17, 02:33:00,VALID,0,VALID,99.6264,VALID,0.0509425,VALID,19.8591,VALID,213,VALID,1.01122,
1999-09-17, 02:34:00,VALID,0,VALID,99.6162,VALID,0.0339617,VALID,19.8303,VALID,214,VALID,1.24058,
1999-09-17, 02:35:00,VALID,0,VALID,99.6137,VALID,-0.0849042,VALID,19.832,VALID,211,VALID,1.13446,
1999-09-17, 02:36:00,VALID,0,VALID,99.6429,VALID,-0.101885,VALID,19.8216,VALID,211,VALID,0.796053,
1999-09-17, 02:37:00,VALID,0,VALID,99.6556,VALID,-0.0509425,VALID,19.825,VALID,208,VALID,0.577344,
1999-09-17, 02:38:00,VALID,0,VALID,99.6658,VALID,-0.0169808,VALID,19.8248,VALID,206,VALID,0.784288,
1999-09-17, 02:39:00,VALID,0,VALID,99.6684,VALID,-0.0339617,VALID,19.8248,VALID,203,VALID,0.918997,
1999-09-17, 02:40:00,VALID,0,VALID,99.6684,VALID,-0.0509425,VALID,19.8444,VALID,205,VALID,0.798024,
1999-09-17, 02:41:00,VALID,0,VALID,99.6569,VALID,-0.0679233,VALID,19.8472,VALID,213,VALID,0.792752,
1999-09-17, 02:42:00,VALID,0,VALID,99.648,VALID,-0.0679233,VALID,19.8673,VALID,225,VALID,0.582137,
1999-09-17, 02:43:00,VALID,0,VALID,99.6188,VALID,-0.0339617,VALID,19.8708,VALID,219,VALID,1.15313,
1999-09-17, 02:44:00,VALID,0,VALID,99.6035,VALID,-0.0849042,VALID,19.88,VALID,215,VALID,1.1165,
1999-09-17, 02:45:00,VALID,0,VALID,99.5577,VALID,-0.0509425,VALID,19.8733,VALID,218,VALID,1.03762,
1999-09-17, 02:46:00,VALID,0,VALID,99.5361,VALID,-0.0679233,VALID,19.8835,VALID,220,VALID,1.19171,
1999-09-17, 02:47:00,VALID,0,VALID,99.5132,VALID,-0.0849042,VALID,19.8701,VALID,213,VALID,1.04668,
1999-09-17, 02:48:00,VALID,0,VALID,99.4865,VALID,-0.0339617,VALID,19.8633,VALID,220,VALID,1.20486,
1999-09-17, 02:49:01,VALID,0,VALID,99.456,VALID,-0.0509425,VALID,19.8601,VALID,232,VALID,1.1396,
1999-09-17, 02:50:00,VALID,0,VALID,99.4484,VALID,-0.0339617,VALID,19.8601,VALID,230,VALID,0.895221,
1999-09-17, 02:51:00,VALID,0,VALID,99.4344,VALID,-0.0339617,VALID,19.8638,VALID,234,VALID,1.1237,
1999-09-17, 02:52:00,VALID,0,VALID,99.4509,VALID,-0.0509425,VALID,19.8671,VALID,227,VALID,1.3959,
1999-09-17, 02:53:00,VALID,0,VALID,99.4293,VALID,-0.0509425,VALID,19.8865,VALID,222,VALID,1.04587,
1999-09-17, 02:54:00,VALID,0,VALID,99.3899,VALID,-0.0679233,VALID,19.8865,VALID,225,VALID,1.39108,
1999-09-17, 02:55:00,VALID,0,VALID,99.3937,VALID,-0.101885,VALID,19.8934,VALID,219,VALID,1.48294,
1999-09-17, 02:56:00,VALID,0,VALID,99.3632,VALID,-0.0509425,VALID,19.89,VALID,217,VALID,1.61904,
1999-09-17, 02:57:00,VALID,0,VALID,99.3225,VALID,-0.0679233,VALID,19.9024,VALID,218,VALID,1.64551,
1999-09-17, 02:58:00,VALID,0,VALID,99.2971,VALID,0,VALID,19.9024,VALID,216,VALID,2.06424,
1999-09-17, 02:59:00,VALID,0,VALID,99.2716,VALID,-0.0509425,VALID,19.9056,VALID,219,VALID,1.81579,
1999-09-17, 03:00:00,VALID,0,VALID,99.2373,VALID,-0.0509425,VALID,19.9126,VALID,220,VALID,1.61029,
1999-09-17, 03:01:00,VALID,0,VALID,99.1928,VALID,-0.0509425,VALID,19.9121,VALID,225,VALID,1.98329,
1999-09-17, 03:02:00,VALID,0,VALID,99.1457,VALID,-0.0169808,VALID,19.925,VALID,221,VALID,1.78695,
1999-09-17, 03:03:00,VALID,0,VALID,99.1216,VALID,-0.0339617,VALID,19.9352,VALID,216,VALID,1.86113,
1999-09-17, 03:04:00,VALID,0,VALID,99.0949,VALID,-0.0339617,VALID,19.9283,VALID,223,VALID,1.73047,
1999-09-17, 03:05:00,VALID,0,VALID,99.1089,VALID,-0.0339617,VALID,19.9153,VALID,206,VALID,1.65275,
1999-09-17, 03:06:00,VALID,0,VALID,99.1356,VALID,-0.0339617,VALID,19.9021,VALID,215,VALID,0.94371,
1999-09-17, 03:07:00,VALID,0,VALID,99.1343,VALID,-0.0169808,VALID,19.8922,VALID,215,VALID,0.93457,
1999-09-17, 03:08:00,VALID,0,VALID,99.1546,VALID,-0.0509425,VALID,19.8798,VALID,200,VALID,1.42882,
1999-09-17, 03:09:00,VALID,0,VALID,99.1966,VALID,0,VALID,19.8636,VALID,201,VALID,0.666324,
1999-09-17, 03:10:00,VALID,0,VALID,99.2208,VALID,-0.0509425,VALID,19.8539,VALID,217,VALID,1.1636,
1999-09-17, 03:11:00,VALID,0,VALID,99.2462,VALID,-0.0509425,VALID,19.8609,VALID,221,VALID,1.15625,
1999-09-17, 03:12:00,VALID,0,VALID,99.2513,VALID,-0.0339617,VALID,19.8442,VALID,215,VALID,1.21453,
1999-09-17, 03:13:00,VALID,0,VALID,99.2691,VALID,-0.0679233,VALID,19.8444,VALID,197,VALID,1.40325,
1999-09-17, 03:14:00,VALID,0,VALID,99.2398,VALID,-0.0849042,VALID,19.8377,VALID,207,VALID,1.08318,
1999-09-17, 03:15:00,VALID,0,VALID,99.2258,VALID,-0.0339617,VALID,19.8345,VALID,216,VALID,1.01275,
1999-09-17, 03:16:00,VALID,0,VALID,99.222,VALID,-0.0169808,VALID,19.8347,VALID,211,VALID,1.11184,
1999-09-17, 03:17:00,VALID,0,VALID,99.1826,VALID,-0.0339617,VALID,19.8377,VALID,225,VALID,1.38262,
1999-09-17, 03:18:00,VALID,0,VALID,99.1305,VALID,-0.0509425,VALID,19.8477,VALID,222,VALID,1.29905,
1999-09-17, 03:19:00,VALID,0,VALID,99.0936,VALID,-0.0679233,VALID,19.8671,VALID,215,VALID,0.698191,
1999-09-17, 03:20:00,VALID,0,VALID,99.002,VALID,-0.0679233,VALID,19.8671,VALID,216,VALID,1.01333,
1999-09-17, 03:21:00,VALID,0,VALID,98.9029,VALID,-0.0509425,VALID,19.8636,VALID,197,VALID,1.16753,
1999-09-17, 03:22:00,VALID,0,VALID,98.8202,VALID,-0.0339617,VALID,19.8775,VALID,186,VALID,1.28948,
1999-09-17, 03:23:01,VALID,0,VALID,98.7528,VALID,-0.0679233,VALID,19.8636,VALID,165,VALID,1.30449,
1999-09-17, 03:24:00,VALID,0,VALID,98.6791,VALID,-0.0679233,VALID,19.8678,VALID,153,VALID,0.975184,
1999-09-17, 03:25:00,VALID,0,VALID,98.6663,VALID,-0.0339617,VALID,19.8412,VALID,156,VALID,1.55633,
1999-09-17, 03:26:00,VALID,0,VALID,98.6549,VALID,-0.0849042,VALID,19.8444,VALID,147,VALID,1.27003,
1999-09-17, 03:27:00,VALID,0,VALID,98.6651,VALID,-0.101885,VALID,19.8385,VALID,141,VALID,0.648438,
1999-09-17, 03:28:00,VALID,0,VALID,98.6778,VALID,-0.0679233,VALID,19.8186,VALID,142,VALID,1.20356,
1999-09-17, 03:29:00,VALID,0,VALID,98.6574,VALID,-0.0849042,VALID,19.8091,VALID,154,VALID,1.14782,
1999-09-17, 03:30:00,VALID,0,VALID,98.6816,VALID,-0.0509425,VALID,19.7994,VALID,159,VALID,1.33479,
1999-09-17, 03:31:00,VALID,0,VALID,98.7108,VALID,-0.0169808,VALID,19.78,VALID,181,VALID,1.25955,
1999-09-17, 03:32:00,VALID,0,VALID,98.7325,VALID,-0.0509425,VALID,19.7706,VALID,180,VALID,1.2348,
1999-09-17, 03:33:01,VALID,0,VALID,98.7706,VALID,-0.0679233,VALID,19.7641,VALID,202,VALID,1.49099,
1999-09-17, 03:34:01,VALID,0,VALID,98.8113,VALID,-0.0679233,VALID,19.7407,VALID,188,VALID,1.36834,
1999-09-17, 03:35:00,VALID,0,VALID,98.824,VALID,-0.0509425,VALID,19.7447,VALID,170,VALID,1.65563,
1999-09-17, 03:36:00,VALID,0,VALID,98.7935,VALID,-0.0849042,VALID,19.7248,VALID,173,VALID,1.27138,
1999-09-17, 03:37:00,VALID,0,VALID,98.7986,VALID,-0.0679233,VALID,19.7253,VALID,168,VALID,1.59277,
1999-09-17, 03:38:00,VALID,0,VALID,98.7732,VALID,-0.0339617,VALID,19.7151,VALID,166,VALID,1.56293,
1999-09-17, 03:39:00,VALID,0,VALID,98.7325,VALID,-0.0849042,VALID,19.7216,VALID,164,VALID,1.06826,
1999-09-17, 03:40:00,VALID,0,VALID,98.693,VALID,-0.0849042,VALID,19.7119,VALID,160,VALID,1.21278,
1999-09-17, 03:41:00,VALID,0,VALID,98.6574,VALID,-0.0339617,VALID,19.7017,VALID,148,VALID,0.839627,
1999-09-17, 03:42:00,VALID,0,VALID,98.6473,VALID,-0.0169808,VALID,19.7057,VALID,156,VALID,0.434122,
1999-09-17, 03:43:00,VALID,0,VALID,98.6498,VALID,-0.0509425,VALID,19.7094,VALID,136,VALID,0.779297,
1999-09-17, 03:44:00,VALID,0,VALID,98.6333,VALID,-0.0679233,VALID,19.7019,VALID,106,VALID,0.787454,
1999-09-17, 03:45:01,VALID,0,VALID,98.5964,VALID,-0.0339617,VALID,19.7024,VALID,115,VALID,1.17969,
1999-09-17, 03:46:00,VALID,0,VALID,98.6104,VALID,-0.0339617,VALID,19.7091,VALID,109,VALID,0.857973,
1999-09-17, 03:47:00,VALID,0,VALID,98.5443,VALID,-0.0169808,VALID,19.6957,VALID,113,VALID,0.617383,
1999-09-17, 03:48:00,VALID,0,VALID,98.543,VALID,-0.0169808,VALID,19.6962,VALID,89,VALID,0.506293,
1999-09-17, 03:49:00,VALID,0,VALID,98.5023,VALID,-0.0339617,VALID,19.683,VALID,81,VALID,0.730058,
1999-09-17, 03:50:00,VALID,0,VALID,98.4794,VALID,-0.0339617,VALID,19.6634,VALID,67,VALID,0.828585,
1999-09-17, 03:51:00,VALID,0,VALID,98.5379,VALID,-0.0339617,VALID,19.6507,VALID,77,VALID,0.763238,
1999-09-17, 03:52:00,VALID,0,VALID,98.6091,VALID,-0.0679233,VALID,19.6348,VALID,80,VALID,0.769215,
1999-09-17, 03:53:00,VALID,0,VALID,98.7007,VALID,-0.0339617,VALID,19.6184,VALID,91,VALID,1.04006,
1999-09-17, 03:54:00,VALID,0,VALID,98.8011,VALID,-0.0339617,VALID,19.586,VALID,98,VALID,0.86443,
1999-09-17, 03:55:00,VALID,0,VALID,98.9359,VALID,-0.0509425,VALID,19.5736,VALID,105,VALID,0.665707,
1999-09-17, 03:56:01,VALID,0,VALID,99.0364,VALID,-0.0169808,VALID,19.5572,VALID,122,VALID,0.751028,
1999-09-17, 03:57:00,VALID,0,VALID,99.0567,VALID,-0.0509425,VALID,19.5278,VALID,140,VALID,0.849219,
1999-09-17, 03:58:00,VALID,0,VALID,99.0885,VALID,-0.0339617,VALID,19.4952,VALID,118,VALID,0.944444,
1999-09-17, 03:59:00,VALID,0,VALID,99.1381,VALID,-0.0339617,VALID,19.4798,VALID,131,VALID,0.919202,
1999-09-17, 04:00:00,VALID,0,VALID,99.1915,VALID,-0.0339617,VALID,19.4567,VALID,148,VALID,1.1597,
1999-09-17, 04:01:00,VALID,0,VALID,99.1457,VALID,-0.0339617,VALID,19.4599,VALID,150,VALID,1.00217,
1999-09-17, 04:02:00,VALID,0,VALID,99.1254,VALID,-0.0509425,VALID,19.4413,VALID,162,VALID,0.830236,
1999-09-17, 04:03:00,VALID,0,VALID,99.0733,VALID,-0.0849042,VALID,19.4346,VALID,156,VALID,0.990039,
1999-09-17, 04:04:00,VALID,0,VALID,99.0898,VALID,-0.0849042,VALID,19.4375,VALID,147,VALID,1.11144,